| time (UTC) | temp C | wind direction | speed KPH | gust KPH | rain 1hr cm | rain 24hr cm | rain mn cm | humidity % | barometer mb |
| 20260904042343 | -17 | 184 | 3.2 | 6.4 | 0.00 | 0.00 | 0.00 | 1016.4 | |
| 20260904041838 | -17 | 201 | 4.8 | 6.4 | 0.00 | 0.00 | 0.00 | 1016.3 | |
| 20260904041334 | -17 | 212 | 3.2 | 4.8 | 0.00 | 0.00 | 0.00 | 1016.2 | |
| 20260904040830 | -17 | 166 | 4.8 | 11.3 | 0.00 | 0.00 | 0.00 | 1016.2 | |
| 20260904040325 | -17 | 156 | 9.7 | 16.1 | 0.00 | 0.00 | 0.00 | 1016.3 | |
| 20260904035821 | -17 | 173 | 3.2 | 4.8 | 0.00 | 0.00 | 0.00 | 1016.4 | |
| 20260904035317 | -17 | 182 | 4.8 | 6.4 | 0.00 | 0.00 | 0.00 | 1016.4 | |
| 20260904034815 | -17 | 195 | 3.2 | 4.8 | 0.00 | 0.00 | 0.00 | 1016.0 | |
| 20260904034311 | -17 | 166 | 4.8 | 8.0 | 0.00 | 0.00 | 0.00 | 1016.0 | |
| 20260904033807 | -17 | 219 | 3.2 | 8.0 | 0.00 | 0.00 | 0.00 | 1016.0 | |
| 20260904033304 | -17 | 143 | 4.8 | 12.9 | 0.00 | 0.00 | 0.00 | 1016.0 | |
| 20260904032759 | -17 | 143 | 4.8 | 12.9 | 0.00 | 0.00 | 0.00 | 1016.1 | |
| 20260904032259 | -17 | 200 | 6.4 | 6.4 | 0.00 | 0.00 | 0.00 | 1015.9 | |
| 20260904031753 | -17 | 125 | 8.0 | 11.3 | 0.00 | 0.00 | 0.00 | 1016.0 | |
| 20260904031249 | -17 | 160 | 1.6 | 8.0 | 0.00 | 0.00 | 0.00 | 1015.8 | |
| 20260904030744 | -17 | 186 | 4.8 | 4.8 | 0.00 | 0.00 | 0.00 | 1015.8 | |
| 20260904030239 | -17 | 174 | 8.0 | 11.3 | 0.00 | 0.00 | 0.00 | 1015.8 | |
| 20260904025736 | -17 | 195 | 3.2 | 4.8 | 0.00 | 0.00 | 0.00 | 1015.8 | |
| 20260904025230 | -17 | 190 | 3.2 | 4.8 | 0.00 | 0.00 | 0.00 | 1015.8 | |
| 20260904024720 | -17 | 177 | 4.8 | 8.0 | 0.00 | 0.00 | 0.00 | 1015.8 | |
| 20260904024216 | -17 | 119 | 3.2 | 9.7 | 0.00 | 0.00 | 0.00 | 1015.7 | |
| 20260904023712 | -17 | 155 | 3.2 | 4.8 | 0.00 | 0.00 | 0.00 | 1015.7 | |
| 20260904023207 | -17 | 186 | 8.0 | 14.5 | 0.00 | 0.00 | 0.00 | 1015.5 | |
| 20260904022701 | -17 | 165 | 3.2 | 3.2 | 0.00 | 0.00 | 0.00 | 1015.5 | |
| 20260904022158 | -17 | 135 | 3.2 | 6.4 | 0.00 | 0.00 | 0.00 | 1015.6 | |
| 20260904021654 | -17 | 199 | 3.2 | 6.4 | 0.00 | 0.00 | 0.00 | 1015.0 | |
| 20260904021148 | -17 | 202 | 1.6 | 4.8 | 0.00 | 0.00 | 0.00 | 1015.0 | |
| 20260904020645 | -17 | 168 | 3.2 | 6.4 | 0.00 | 0.00 | 0.00 | 1015.0 | |
| 20260904020139 | -17 | 139 | 3.2 | 8.0 | 0.00 | 0.00 | 0.00 | 1015.0 | |
| 20260904015638 | -17 | 139 | 3.2 | 8.0 | 0.00 | 0.00 | 0.00 | 1015.0 | |
| 20260904015137 | -17 | 171 | 3.2 | 8.0 | 0.00 | 0.00 | 0.00 | 1015.0 | |
| 20260904014636 | -17 | 211 | 3.2 | 11.3 | 0.00 | 0.00 | 0.00 | 1014.9 | |
| 20260904014132 | -17 | 156 | 4.8 | 11.3 | 0.00 | 0.00 | 0.00 | 1014.9 | |
| 20260904013629 | -17 | 174 | 4.8 | 12.9 | 0.00 | 0.00 | 0.00 | 1015.0 | |
| 20260904013124 | -17 | 157 | 6.4 | 12.9 | 0.00 | 0.00 | 0.00 | 1015.0 | |
| 20260904012620 | -17 | 191 | 6.4 | 12.9 | 0.00 | 0.00 | 0.00 | 1015.0 | |
| 20260904012119 | -17 | 203 | 0.0 | 4.8 | 0.00 | 0.00 | 0.00 | 1014.8 | |
| 20260904011618 | -17 | 183 | 3.2 | 4.8 | 0.00 | 0.00 | 0.00 | 1014.8 | |
| 20260904011114 | -17 | 139 | 4.8 | 6.4 | 0.00 | 0.00 | 0.00 | 1014.8 | |
| 20260904010609 | -17 | 152 | 4.8 | 8.0 | 0.00 | 0.00 | 0.00 | 1014.7 | |
| 20260904010106 | -17 | 77 | 0.0 | 11.3 | 0.00 | 0.00 | 0.00 | 1014.7 | |
| 20260904005600 | -17 | 205 | 1.6 | 16.1 | 0.00 | 0.00 | 0.00 | 1014.5 | |
| 20260904005055 | -17 | 132 | 6.4 | 8.0 | 0.00 | 0.00 | 0.00 | 1014.5 | |
| 20260904004551 | -17 | 182 | 4.8 | 14.5 | 0.00 | 0.00 | 0.00 | 1014.8 | |
| 20260904004046 | -17 | 144 | 4.8 | 8.0 | 0.00 | 0.00 | 0.00 | 1014.7 | |
| 20260904003542 | -17 | 173 | 0.0 | 11.3 | 0.00 | 0.00 | 0.00 | 1014.6 | |
| 20260904003038 | -17 | 180 | 4.8 | 14.5 | 0.00 | 0.00 | 0.00 | 1014.6 | |
| 20260904002533 | -17 | 189 | 4.8 | 20.9 | 0.00 | 0.00 | 0.00 | 1014.6 | |
| 20260904002033 | -17 | 185 | 3.2 | 12.9 | 0.00 | 0.00 | 0.00 | 1014.4 | |
| 20260904001529 | -17 | 168 | 3.2 | 12.9 | 0.00 | 0.00 | 0.00 | 1014.6 | |
| 20260904001028 | -17 | 190 | 3.2 | 17.7 | 0.00 | 0.00 | 0.00 | 1014.5 | |
| 20260904000527 | -17 | 194 | 6.4 | 14.5 | 0.00 | 0.00 | 0.00 | 1014.4 | |
| 20260904000024 | -17 | 187 | 4.8 | 9.7 | 0.00 | 0.00 | 0.00 | 1014.3 | |
| 20260903235518 | -17 | 165 | 3.2 | 12.9 | 0.00 | 0.00 | 0.00 | 1014.5 | |
| 20260903235014 | -17 | 186 | 6.4 | 14.5 | 0.00 | 0.00 | 0.00 | 1014.4 | |
| 20260903234509 | -17 | 169 | 4.8 | 14.5 | 0.00 | 0.00 | 0.00 | 1014.6 | |
| 20260903234005 | -17 | 143 | 3.2 | 14.5 | 0.00 | 0.00 | 0.00 | 1014.3 | |
| 20260903233501 | -17 | 186 | 4.8 | 12.9 | 0.00 | 0.00 | 0.00 | 1014.2 | |
| 20260903232955 | -17 | 133 | 9.7 | 16.1 | 0.00 | 0.00 | 0.00 | 1014.1 | |
| 20260903232451 | -17 | 196 | 4.8 | 17.7 | 0.00 | 0.00 | 0.00 | 1014.1 | |
| 20260903231950 | -17 | 160 | 6.4 | 14.5 | 0.00 | 0.00 | 0.00 | 1014.2 | |
| 20260903231445 | -17 | 179 | 4.8 | 20.9 | 0.00 | 0.00 | 0.00 | 1014.2 | |
| 20260903230940 | -17 | 163 | 1.6 | 16.1 | 0.00 | 0.00 | 0.00 | 1013.9 | |
| 20260903230436 | -17 | 117 | 8.0 | 12.9 | 0.00 | 0.00 | 0.00 | 1014.0 | |
| 20260903225932 | -17 | 191 | 6.4 | 19.3 | 0.00 | 0.00 | 0.00 | 1014.0 | |
| 20260903225427 | -17 | 158 | 3.2 | 12.9 | 0.00 | 0.00 | 0.00 | 1013.8 | |
| 20260903224924 | -17 | 156 | 6.4 | 8.0 | 0.00 | 0.00 | 0.00 | 1013.6 | |
| 20260903224419 | -17 | 171 | 4.8 | 9.7 | 0.00 | 0.00 | 0.00 | 1013.6 | |
| 20260903223915 | -17 | 187 | 6.4 | 12.9 | 0.00 | 0.00 | 0.00 | 1013.6 | |
| 20260903223414 | -17 | 128 | 6.4 | 6.4 | 0.00 | 0.00 | 0.00 | 1013.7 | |
| 20260903222913 | -17 | 232 | 6.4 | 9.7 | 0.00 | 0.00 | 0.00 | 1013.6 | |
| 20260903222409 | -17 | 165 | 3.2 | 4.8 | 0.00 | 0.00 | 0.00 | 1013.8 | |
| 20260903221903 | -17 | 180 | 4.8 | 8.0 | 0.00 | 0.00 | 0.00 | 1013.7 | |
| 20260903221401 | -17 | 162 | 6.4 | 14.5 | 0.00 | 0.00 | 0.00 | 1013.7 | |
| 20260903220900 | -17 | 114 | 3.2 | 11.3 | 0.00 | 0.00 | 0.00 | 1013.6 | |
| 20260903220349 | -17 | 128 | 6.4 | 11.3 | 0.00 | 0.00 | 0.00 | 1013.6 | |
| 20260903215847 | -17 | 128 | 6.4 | 11.3 | 0.00 | 0.00 | 0.00 | 1013.6 | |
| 20260903215343 | -17 | 145 | 3.2 | 6.4 | 0.00 | 0.00 | 0.00 | 1013.6 | |
| 20260903214841 | -17 | 145 | 3.2 | 6.4 | 0.00 | 0.00 | 0.00 | 1013.6 | |
| 20260903214332 | -17 | 145 | 3.2 | 6.4 | 0.00 | 0.00 | 0.00 | 1013.6 | |
| 20260903213826 | -17 | 166 | 6.4 | 12.9 | 0.00 | 0.00 | 0.00 | 1013.8 | |
| 20260903213321 | -17 | 180 | 6.4 | 8.0 | 0.00 | 0.00 | 0.00 | 1013.8 | |
| 20260903212817 | -17 | 193 | 6.4 | 8.0 | 0.00 | 0.00 | 0.00 | 1013.8 | |
| 20260903212314 | -17 | 193 | 6.4 | 8.0 | 0.00 | 0.00 | 0.00 | 1013.8 | |
| 20260903211813 | -17 | 193 | 6.4 | 8.0 | 0.00 | 0.00 | 0.00 | 1013.8 | |
| 20260903211309 | -17 | 193 | 6.4 | 8.0 | 0.00 | 0.00 | 0.00 | 1013.8 | |
| 20260903210805 | -17 | 193 | 6.4 | 8.0 | 0.00 | 0.00 | 0.00 | 1013.9 | |
| 20260903210300 | -17 | 193 | 6.4 | 8.0 | 0.00 | 0.00 | 0.00 | 1013.9 | |
| 20260903205800 | -17 | 193 | 3.2 | 6.4 | 0.00 | 0.00 | 0.00 | 1014.0 | |
| 20260903205300 | -17 | 193 | 3.2 | 6.4 | 0.00 | 0.00 | 0.00 | 1014.0 | |
| 20260903204800 | -17 | 193 | 3.2 | 6.4 | 0.00 | 0.00 | 0.00 | 1014.2 | |
| 20260903204256 | -17 | 193 | 3.2 | 6.4 | 0.00 | 0.00 | 0.00 | 1014.0 | |
| 20260903203751 | -17 | 193 | 3.2 | 6.4 | 0.00 | 0.00 | 0.00 | 1014.2 | |
| 20260903203247 | -17 | 216 | 0.0 | 4.8 | 0.00 | 0.00 | 0.00 | 1014.5 | |
| 20260903202745 | -17 | 216 | 0.0 | 4.8 | 0.00 | 0.00 | 0.00 | 1014.6 | |
| 20260903202243 | -17 | 216 | 0.0 | 4.8 | 0.00 | 0.00 | 0.00 | 1014.5 | |
| 20260903201741 | -17 | 216 | 0.0 | 4.8 | 0.00 | 0.00 | 0.00 | 1014.5 | |
| 20260903201237 | -17 | 216 | 0.0 | 4.8 | 0.00 | 0.00 | 0.00 | 1014.8 | |
| 20260903200735 | -17 | 216 | 0.0 | 4.8 | 0.00 | 0.00 | 0.00 | 1014.7 | |
| 20260903200231 | -17 | 216 | 0.0 | 4.8 | 0.00 | 0.00 | 0.00 | 1014.8 | |
| 20260903195726 | -17 | 216 | 0.0 | 4.8 | 0.00 | 0.00 | 0.00 | 1014.8 | |
| 20260903195223 | -17 | 216 | 0.0 | 4.8 | 0.00 | 0.00 | 0.00 | 1014.8 | |
| 20260903194722 | -17 | 209 | 4.8 | 8.0 | 0.00 | 0.00 | 0.00 | 1014.8 | |
| 20260903194218 | -17 | 186 | 3.2 | 4.8 | 0.00 | 0.00 | 0.00 | 1014.8 | |
| 20260903193713 | -17 | 228 | 3.2 | 4.8 | 0.00 | 0.00 | 0.00 | 1015.1 | |
| 20260903193208 | -17 | 166 | 4.8 | 8.0 | 0.00 | 0.00 | 0.00 | 1015.0 | |
| 20260903192705 | -17 | 166 | 4.8 | 8.0 | 0.00 | 0.00 | 0.00 | 1015.1 | |
| 20260903192200 | -17 | 224 | 4.8 | 6.4 | 0.00 | 0.00 | 0.00 | 1015.2 | |
| 20260903191656 | -17 | 230 | 1.6 | 4.8 | 0.00 | 0.00 | 0.00 | 1015.4 | |
| 20260903191156 | -17 | 230 | 1.6 | 8.0 | 0.00 | 0.00 | 0.00 | 1015.4 | |
| 20260903190651 | -17 | 190 | 3.2 | 4.8 | 0.00 | 0.00 | 0.00 | 1015.4 | |
| 20260903190145 | -17 | 190 | 3.2 | 4.8 | 0.00 | 0.00 | 0.00 | 1015.6 | |
| 20260903185640 | -17 | 190 | 3.2 | 4.8 | 0.00 | 0.00 | 0.00 | 1015.6 | |
| 20260903185135 | -17 | 190 | 3.2 | 4.8 | 0.00 | 0.00 | 0.00 | 1015.6 | |
| 20260903184632 | -17 | 190 | 3.2 | 4.8 | 0.00 | 0.00 | 0.00 | 1015.6 | |
| 20260903184128 | -17 | 190 | 3.2 | 4.8 | 0.00 | 0.00 | 0.00 | 1015.7 | |
| 20260903183626 | -17 | 190 | 3.2 | 4.8 | 0.00 | 0.00 | 0.00 | 1015.9 | |
| 20260903183121 | -17 | 220 | 0.0 | 4.8 | 0.00 | 0.00 | 0.00 | 1016.0 | |
| 20260903182621 | -17 | 212 | 1.6 | 3.2 | 0.00 | 0.00 | 0.00 | 1016.1 | |
| 20260903182117 | -17 | 212 | 1.6 | 3.2 | 0.00 | 0.00 | 0.00 | 1016.1 | |
| 20260903181614 | -17 | 181 | 3.2 | 6.4 | 0.00 | 0.00 | 0.00 | 1016.2 | |
| 20260903181109 | -17 | 181 | 3.2 | 6.4 | 0.00 | 0.00 | 0.00 | 1016.1 | |
| 20260903180604 | -17 | 181 | 3.2 | 6.4 | 0.00 | 0.00 | 0.00 | 1016.2 | |
| 20260903180058 | -17 | 180 | 1.6 | 3.2 | 0.00 | 0.00 | 0.00 | 1016.2 | |
| 20260903175552 | -17 | 186 | 3.2 | 4.8 | 0.00 | 0.00 | 0.00 | 1016.6 | |
| 20260903175052 | -17 | 186 | 3.2 | 4.8 | 0.00 | 0.00 | 0.00 | 1016.5 | |
| 20260903174547 | -17 | 176 | 3.2 | 9.7 | 0.00 | 0.00 | 0.00 | 1016.8 | |
| 20260903174041 | -17 | 180 | 4.8 | 4.8 | 0.00 | 0.00 | 0.00 | 1016.7 | |
| 20260903173535 | -17 | 180 | 4.8 | 4.8 | 0.00 | 0.00 | 0.00 | 1016.5 | |
| 20260903173033 | -17 | 180 | 4.8 | 4.8 | 0.00 | 0.00 | 0.00 | 1017.0 | |
| 20260903172527 | -17 | 154 | 3.2 | 8.0 | 0.00 | 0.00 | 0.00 | 1016.7 | |
| 20260903172022 | -17 | 153 | 4.8 | 8.0 | 0.00 | 0.00 | 0.00 | 1017.0 | |
| 20260903171517 | -17 | 153 | 4.8 | 8.0 | 0.00 | 0.00 | 0.00 | 1017.0 | |
| 20260903171013 | -17 | 153 | 4.8 | 8.0 | 0.00 | 0.00 | 0.00 | 1017.0 | |
| 20260903170512 | -17 | 155 | 4.8 | 6.4 | 0.00 | 0.00 | 0.00 | ||
| 20260903170007 | -17 | 155 | 4.8 | 6.4 | 0.00 | 0.00 | 0.00 | ||
| 20260903165505 | -17 | 179 | 0.0 | 4.8 | 0.00 | 0.00 | 0.00 | ||
| 20260903165001 | -17 | 145 | 4.8 | 8.0 | 0.00 | 0.00 | 0.00 | 1016.6 | |
| 20260903164455 | -17 | 162 | 1.6 | 4.8 | 0.00 | 0.00 | 0.00 | 1016.6 | |
| 20260903163955 | -17 | 162 | 1.6 | 4.8 | 0.00 | 0.00 | 0.00 | 1016.6 | |
| 20260903163451 | -17 | 227 | 3.2 | 9.7 | 0.00 | 0.00 | 0.00 | 1016.6 | |
| 20260903162946 | -17 | 237 | 4.8 | 8.0 | 0.00 | 0.00 | 0.00 | 1016.6 | |
| 20260903162437 | -17 | 233 | 3.2 | 4.8 | 0.00 | 0.00 | 0.00 | 1016.6 | |
| 20260903161933 | -17 | 230 | 4.8 | 8.0 | 0.00 | 0.00 | 0.00 | 1016.6 | |
| 20260903161428 | -17 | 236 | 3.2 | 8.0 | 0.00 | 0.00 | 0.00 | 1016.6 | |
| 20260903160924 | -17 | 227 | 4.8 | 6.4 | 0.00 | 0.00 | 0.00 | 1016.6 | |
| 20260903160423 | -17 | 233 | 3.2 | 4.8 | 0.00 | 0.00 | 0.00 | 1016.6 | |
| 20260903155921 | -17 | 205 | 0.0 | 3.2 | 0.00 | 0.00 | 0.00 | 1016.6 | |
| 20260903155417 | -17 | 183 | 3.2 | 4.8 | 0.00 | 0.00 | 0.00 | 1016.6 | |
| 20260903154913 | -17 | 220 | 3.2 | 4.8 | 0.00 | 0.00 | 0.00 | 1016.8 | |
| 20260903154408 | -17 | 207 | 3.2 | 6.4 | 0.00 | 0.00 | 0.00 | 1016.5 | |
| 20260903153903 | -17 | 293 | 1.6 | 3.2 | 0.00 | 0.00 | 0.00 | 1016.6 | |
| 20260903153358 | -17 | 194 | 1.6 | 3.2 | 0.00 | 0.00 | 0.00 | 1016.7 | |
| 20260903152855 | -17 | 211 | 3.2 | 3.2 | 0.00 | 0.00 | 0.00 | 1016.8 | |
| 20260903152350 | -17 | 213 | 3.2 | 6.4 | 0.00 | 0.00 | 0.00 | 1016.8 | |
| 20260903151846 | -17 | 250 | 6.4 | 8.0 | 0.00 | 0.00 | 0.00 | 1016.6 | |
| 20260903151341 | -17 | 209 | 4.8 | 6.4 | 0.00 | 0.00 | 0.00 | 1016.6 | |
| 20260903150840 | -17 | 243 | 3.2 | 4.8 | 0.00 | 0.00 | 0.00 | 1016.7 | |
| 20260903150335 | -17 | 217 | 0.0 | 6.4 | 0.00 | 0.00 | 0.00 | 1016.8 | |
| 20260903145830 | -17 | 232 | 6.4 | 9.7 | 0.00 | 0.00 | 0.00 | 1016.7 | |
| 20260903145326 | -17 | 194 | 1.6 | 6.4 | 0.00 | 0.00 | 0.00 | 1016.8 | |
| 20260903144825 | -17 | 255 | 6.4 | 8.0 | 0.00 | 0.00 | 0.00 | 1016.8 | |
| 20260903144320 | -17 | 228 | 3.2 | 4.8 | 0.00 | 0.00 | 0.00 | 1016.8 | |
| 20260903143815 | -17 | 209 | 4.8 | 4.8 | 0.00 | 0.00 | 0.00 | 1016.7 | |
| 20260903143312 | -17 | 228 | 4.8 | 8.0 | 0.00 | 0.00 | 0.00 | 1016.6 | |
| 20260903142808 | -17 | 213 | 4.8 | 4.8 | 0.00 | 0.00 | 0.00 | 1016.8 | |
| 20260903142306 | -17 | 213 | 4.8 | 4.8 | 0.00 | 0.00 | 0.00 | 1016.6 | |
| 20260903141759 | -17 | 215 | 4.8 | 8.0 | 0.00 | 0.00 | 0.00 | 1016.8 | |
| 20260903141255 | -17 | 229 | 3.2 | 4.8 | 0.00 | 0.00 | 0.00 | 1016.8 | |
| 20260903140754 | -17 | 279 | 4.8 | 4.8 | 0.00 | 0.00 | 0.00 | 1016.6 | |
| 20260903140250 | -17 | 227 | 3.2 | 4.8 | 0.00 | 0.00 | 0.00 | 1016.7 | |
| 20260903135745 | -17 | 219 | 0.0 | 4.8 | 0.00 | 0.00 | 0.00 | 1016.9 | |
| 20260903135240 | -17 | 232 | 3.2 | 4.8 | 0.00 | 0.00 | 0.00 | 1016.7 | |
| 20260903134739 | -17 | 193 | 3.2 | 4.8 | 0.00 | 0.00 | 0.00 | 1016.8 | |
| 20260903134235 | -17 | 239 | 3.2 | 4.8 | 0.00 | 0.00 | 0.00 | 1016.9 | |
| 20260903133732 | -17 | 213 | 3.2 | 3.2 | 0.00 | 0.00 | 0.00 | 1016.9 | |
| 20260903133229 | -17 | 213 | 3.2 | 3.2 | 0.00 | 0.00 | 0.00 | 1016.7 | |
| 20260903132724 | -17 | 195 | 3.2 | 11.3 | 0.00 | 0.00 | 0.00 | 1016.7 | |
| 20260903132223 | -17 | 221 | 1.6 | 1.6 | 0.00 | 0.00 | 0.00 | 1016.9 | |
| 20260903131719 | -17 | 221 | 1.6 | 1.6 | 0.00 | 0.00 | 0.00 | 1016.9 | |
| 20260903131213 | -17 | 221 | 1.6 | 1.6 | 0.00 | 0.00 | 0.00 | 1016.9 | |
| 20260903130708 | -17 | 221 | 1.6 | 4.8 | 0.00 | 0.00 | 0.00 | 1016.9 | |
| 20260903130202 | -17 | 217 | 1.6 | 3.2 | 0.00 | 0.00 | 0.00 | 1016.8 | |
| 20260903125701 | -17 | 145 | 0.0 | 3.2 | 0.00 | 0.00 | 0.00 | 1016.7 | |
| 20260903125156 | -17 | 246 | 0.0 | 1.6 | 0.00 | 0.00 | 0.00 | 1016.7 | |
| 20260903124655 | -17 | 220 | 1.6 | 3.2 | 0.00 | 0.00 | 0.00 | 1016.6 | |
| 20260903124150 | -17 | 231 | 0.0 | 3.2 | 0.00 | 0.00 | 0.00 | 1016.3 | |
| 20260903123649 | -17 | 178 | 3.2 | 3.2 | 0.00 | 0.00 | 0.00 | 1016.3 | |
| 20260903123148 | -17 | 178 | 3.2 | 3.2 | 0.00 | 0.00 | 0.00 | 1016.3 | |
| 20260903122648 | -17 | 234 | 1.6 | 4.8 | 0.00 | 0.00 | 0.00 | 1016.3 | |
| 20260903122143 | -17 | 205 | 3.2 | 4.8 | 0.00 | 0.00 | 0.00 | 1016.3 | |
| 20260903121641 | -17 | 198 | 0.0 | 4.8 | 0.00 | 0.00 | 0.00 | 1016.4 | |
| 20260903121138 | -17 | 195 | 4.8 | 8.0 | 0.00 | 0.00 | 0.00 | 1016.4 | |
| 20260903120636 | -17 | 184 | 0.0 | 3.2 | 0.00 | 0.00 | 0.00 | 1016.4 | |
| 20260903120131 | -17 | 230 | 0.0 | 1.6 | 0.00 | 0.00 | 0.00 | 1016.4 | |
| 20260903115629 | -17 | 217 | 1.6 | 6.4 | 0.00 | 0.00 | 0.00 | 1016.3 | |
| 20260903115125 | -17 | 242 | 0.0 | 3.2 | 0.00 | 0.00 | 0.00 | 1016.3 | |
| 20260903114620 | -17 | 152 | 8.0 | 12.9 | 0.00 | 0.00 | 0.00 | 1016.3 | |
| 20260903114115 | -17 | 202 | 1.6 | 9.7 | 0.00 | 0.00 | 0.00 | 1016.3 | |
| 20260903113610 | -17 | 204 | 3.2 | 8.0 | 0.00 | 0.00 | 0.00 | 1016.3 | |
| 20260903113107 | -17 | 200 | 1.6 | 11.3 | 0.00 | 0.00 | 0.00 | 1016.4 | |
| 20260903112603 | -17 | 235 | 0.0 | 3.2 | 0.00 | 0.00 | 0.00 | 1016.4 | |
| 20260903112103 | -17 | 208 | 1.6 | 4.8 | 0.00 | 0.00 | 0.00 | 1016.4 | |
| 20260903111602 | -17 | 212 | 0.0 | 3.2 | 0.00 | 0.00 | 0.00 | 1016.4 | |
| 20260903111057 | -17 | 210 | 1.6 | 4.8 | 0.00 | 0.00 | 0.00 | 1016.4 | |
| 20260903110553 | -17 | 224 | 0.0 | 4.8 | 0.00 | 0.00 | 0.00 | 1016.4 | |
| 20260903110048 | -17 | 195 | 0.0 | 4.8 | 0.00 | 0.00 | 0.00 | 1016.0 | |
| 20260903105542 | -17 | 225 | 3.2 | 8.0 | 0.00 | 0.00 | 0.00 | 1016.0 | |
| 20260903105032 | -17 | 223 | 3.2 | 8.0 | 0.00 | 0.00 | 0.00 | 1016.0 | |
| 20260903104532 | -17 | 188 | 1.6 | 3.2 | 0.00 | 0.00 | 0.00 | 1015.9 | |
| 20260903104028 | -17 | 123 | 1.6 | 4.8 | 0.00 | 0.00 | 0.00 | 1015.9 | |
| 20260903103523 | -17 | 219 | 3.2 | 4.8 | 0.00 | 0.00 | 0.00 | 1015.9 | |
| 20260903103020 | -17 | 229 | 3.2 | 4.8 | 0.00 | 0.00 | 0.00 | 1015.9 | |
| 20260903102515 | -17 | 210 | 1.6 | 4.8 | 0.00 | 0.00 | 0.00 | 1015.9 | |
| 20260903102014 | -17 | 204 | 1.6 | 4.8 | 0.00 | 0.00 | 0.00 | 1015.9 | |
| 20260903101508 | -17 | 171 | 1.6 | 4.8 | 0.00 | 0.00 | 0.00 | 1015.9 | |
| 20260903101004 | -17 | 197 | 3.2 | 6.4 | 0.00 | 0.00 | 0.00 | 1015.9 | |
| 20260903100458 | -17 | 213 | 0.0 | 6.4 | 0.00 | 0.00 | 0.00 | 1015.9 | |
| 20260903095956 | -17 | 248 | 1.6 | 6.4 | 0.00 | 0.00 | 0.00 | 1015.9 | |
| 20260903095450 | -17 | 211 | 3.2 | 4.8 | 0.00 | 0.00 | 0.00 | 1015.9 | |
| 20260903094945 | -17 | 199 | 3.2 | 4.8 | 0.00 | 0.00 | 0.00 | 1015.9 | |
| 20260903094445 | -17 | 215 | 3.2 | 3.2 | 0.00 | 0.00 | 0.00 | 1015.9 | |
| 20260903093941 | -17 | 224 | 3.2 | 4.8 | 0.00 | 0.00 | 0.00 | 1015.9 | |
| 20260903093436 | -17 | 205 | 3.2 | 4.8 | 0.00 | 0.00 | 0.00 | 1015.9 | |
| 20260903092931 | -17 | 255 | 1.6 | 6.4 | 0.00 | 0.00 | 0.00 | 1016.1 | |
| 20260903092426 | -17 | 210 | 1.6 | 4.8 | 0.00 | 0.00 | 0.00 | 1016.3 | |
| 20260903091924 | -17 | 220 | 3.2 | 16.1 | 0.00 | 0.00 | 0.00 | 1016.3 | |
| 20260903091423 | -17 | 162 | 1.6 | 4.8 | 0.00 | 0.00 | 0.00 | 1016.3 | |
| 20260903090918 | -17 | 213 | 3.2 | 6.4 | 0.00 | 0.00 | 0.00 | 1016.2 | |
| 20260903090414 | -17 | 232 | 4.8 | 6.4 | 0.00 | 0.00 | 0.00 | 1016.2 | |
| 20260903085912 | -17 | 219 | 0.0 | 4.8 | 0.00 | 0.00 | 0.00 | 1016.2 | |
| 20260903085411 | -17 | 72 | 0.0 | 6.4 | 0.00 | 0.00 | 0.00 | 1016.2 | |
| 20260903084911 | -17 | 201 | 4.8 | 8.0 | 0.00 | 0.00 | 0.00 | 1016.2 | |
| 20260903084409 | -17 | 216 | 4.8 | 9.7 | 0.00 | 0.00 | 0.00 | 1016.2 | |
| 20260903083905 | -17 | 226 | 0.0 | 4.8 | 0.00 | 0.00 | 0.00 | 1016.2 | |
| 20260903083401 | -17 | 198 | 1.6 | 3.2 | 0.00 | 0.00 | 0.00 | ||
| 20260903082859 | -17 | 128 | 1.6 | 8.0 | 0.00 | 0.00 | 0.00 | ||
| 20260903082354 | -17 | 220 | 4.8 | 4.8 | 0.00 | 0.00 | 0.00 | ||
| 20260903081850 | -17 | 132 | 6.4 | 8.0 | 0.00 | 0.00 | 0.00 | ||
| 20260903081345 | -17 | 190 | 1.6 | 4.8 | 0.00 | 0.00 | 0.00 | ||
| 20260903080841 | -17 | 338 | 0.0 | 3.2 | 0.00 | 0.00 | 0.00 | ||
| 20260903080338 | -17 | 194 | 3.2 | 4.8 | 0.00 | 0.00 | 0.00 | 1016.3 | |
| 20260903075838 | -17 | 230 | 3.2 | 4.8 | 0.00 | 0.00 | 0.00 | 1016.3 | |
| 20260903075333 | -17 | 215 | 3.2 | 4.8 | 0.00 | 0.00 | 0.00 | 1016.3 | |
| 20260903074833 | -17 | 207 | 3.2 | 6.4 | 0.00 | 0.00 | 0.00 | 1016.3 | |
| 20260903074327 | -17 | 220 | 0.0 | 6.4 | 0.00 | 0.00 | 0.00 | 1016.3 | |
| 20260903073823 | -17 | 199 | 4.8 | 8.0 | 0.00 | 0.00 | 0.00 | 1016.3 | |
| 20260903073318 | -17 | 150 | 3.2 | 4.8 | 0.00 | 0.00 | 0.00 | 1016.3 | |
| 20260903072814 | -17 | 224 | 0.0 | 3.2 | 0.00 | 0.00 | 0.00 | 1016.3 | |
| 20260903072310 | -17 | 205 | 3.2 | 4.8 | 0.00 | 0.00 | 0.00 | 1016.3 | |
| 20260903071806 | -17 | 235 | 3.2 | 4.8 | 0.00 | 0.00 | 0.00 | 1016.3 | |
| 20260903071301 | -17 | 195 | 4.8 | 11.3 | 0.00 | 0.00 | 0.00 | 1016.3 | |
| 20260903070756 | -17 | 215 | 4.8 | 9.7 | 0.00 | 0.00 | 0.00 | 1016.3 | |
| 20260903070252 | -17 | 111 | 3.2 | 4.8 | 0.00 | 0.00 | 0.00 | ||
| 20260903065747 | -17 | 154 | 3.2 | 3.2 | 0.00 | 0.00 | 0.00 | ||
| 20260903065246 | -17 | 192 | 3.2 | 4.8 | 0.00 | 0.00 | 0.00 | ||
| 20260903064745 | -17 | 230 | 0.0 | 3.2 | 0.00 | 0.00 | 0.00 | ||
| 20260903064240 | -17 | 163 | 1.6 | 4.8 | 0.00 | 0.00 | 0.00 | ||
| 20260903063737 | -17 | 153 | 1.6 | 8.0 | 0.00 | 0.00 | 0.00 | ||
| 20260903063231 | -17 | 153 | 1.6 | 8.0 | 0.00 | 0.00 | 0.00 | ||
| 20260903062728 | -17 | 193 | 0.0 | 1.6 | 0.00 | 0.00 | 0.00 | ||
| 20260903062227 | -17 | 134 | 6.4 | 8.0 | 0.00 | 0.00 | 0.00 | ||
| 20260903061724 | -17 | 134 | 6.4 | 8.0 | 0.00 | 0.00 | 0.00 | ||
| 20260903061222 | -17 | 219 | 1.6 | 1.6 | 0.00 | 0.00 | 0.00 | ||
| 20260903060718 | -17 | 197 | 0.0 | 3.2 | 0.00 | 0.00 | 0.00 | ||
| 20260903060218 | -17 | 110 | 8.0 | 9.7 | 0.00 | 0.00 | 0.00 | ||
| 20260903055715 | -17 | 110 | 8.0 | 9.7 | 0.00 | 0.00 | 0.00 | ||
| 20260903055214 | -17 | 110 | 8.0 | 9.7 | 0.00 | 0.00 | 0.00 | ||
| 20260903054709 | -17 | 110 | 8.0 | 9.7 | 0.00 | 0.00 | 0.00 | ||
| 20260903054204 | -17 | 110 | 8.0 | 9.7 | 0.00 | 0.00 | 0.00 | ||
| 20260903053701 | -17 | 110 | 8.0 | 9.7 | 0.00 | 0.00 | 0.00 | ||
| 20260903053155 | -17 | 184 | 3.2 | 3.2 | 0.00 | 0.00 | 0.00 | ||
| 20260903052652 | -17 | 184 | 3.2 | 3.2 | 0.00 | 0.00 | 0.00 | ||
| 20260903052147 | -17 | 134 | 0.0 | 6.4 | 0.00 | 0.00 | 0.00 | ||
| 20260903051642 | -17 | 291 | 1.6 | 8.0 | 0.00 | 0.00 | 0.00 | ||
| 20260903051137 | -17 | 291 | 1.6 | 8.0 | 0.00 | 0.00 | 0.00 | ||
| 20260903050632 | -17 | 171 | 1.6 | 3.2 | 0.00 | 0.00 | 0.00 | ||
| 20260903050126 | -17 | 167 | 3.2 | 6.4 | 0.00 | 0.00 | 0.00 | ||
| 20260903045626 | -17 | 0.0 | 0.0 | 0.00 | 0.56 | 0.56 | |||
| 20260903045123 | -17 | 0.0 | 0.0 | 0.00 | 0.56 | 0.56 | |||
| 20260903044618 | -17 | 145 | 3.2 | 6.4 | 0.00 | 0.56 | 0.56 | 1016.7 | |
| 20260903044114 | -17 | 145 | 3.2 | 6.4 | 0.00 | 0.56 | 0.56 | 1016.7 | |
| 20260903043610 | -17 | 145 | 3.2 | 6.4 | 0.00 | 0.56 | 0.56 | 1016.7 | |
| 20260903043109 | -17 | 145 | 3.2 | 6.4 | 0.00 | 0.56 | 0.56 | 1016.7 |